Regional Weather Roundup
Issued by NWS

Home | Current Version | Previous Version | Text Only | Print | Product List | Glossary On
Versions: 1 2 3 4 5 6 7 8 9 10 11 12 13 14 15 16 17 18 19 20 21 22 23 24 25 26 27 28 29 30 31 32 33 34 35 36 37 38 39 40 41 42 43 44 45 46 47 48 49 50
000
ASUS46 KPQR 181010
RWROR

OREGON REGIONAL WEATHER ROUNDUP
NATIONAL WEATHER SERVICE PORTLAND OR
200 AM PST THU DEC 18 2014

NOTE: "FAIR" INDICATES FEW OR NO CLOUDS BELOW 12,000 FEET WITH
NO SIGNIFICANT WEATHER AND/OR OBSTRUCTIONS TO VISIBILITY.

ORZ001>013-181100-
NORTHWEST OREGON


CITY           SKY/WX    TMP DP  RH WIND       PRES   REMARKS
ASTORIA        LGT RAIN  45  44  97 CALM      29.92F
NEWPORT        MOCLDY    46  45  93 E7        29.96F
PORTLAND       CLOUDY    43  41  93 SE10      29.99R
VANCOUVER WA   LGT RAIN  44  40  85 SE8       29.98S
SCAPPOOSE      CLOUDY    46  44  93 S3        29.97S
HILLSBORO      CLOUDY    46  45  96 SE6       29.96F
AURORA         CLOUDY    46  44  93 CALM      29.98S
MCMINNVILLE    CLOUDY    46  44  93 E3        29.97F
SALEM          MOCLDY    43  40  89 SE3       29.95F
CORVALLIS      MOCLDY    45  39  81 CALM      29.97F VSB 1/2
EUGENE         FOG       40  39  97 S7        29.97F VSB 1
$$

ORZ021-028-181100-
SOUTHWEST OREGON


CITY           SKY/WX    TMP DP  RH WIND       PRES   REMARKS
NORTH BEND     CLOUDY    48  48 100 CALM      29.95F
BROOKINGS      CLOUDY    50  50 100 SE7       29.97S
ROSEBURG       CLOUDY    47  45  93 CALM      29.98S FOG
SEXTON SUMMIT  FOG       36  36 100 SE13      29.93S VSB 1/4 WCI  27
MEDFORD        CLOUDY    44  43  96 CALM      29.99S
$$

ORZ014>016-041-181100-
COLUMBIA GORGE


CITY           SKY/WX    TMP DP  RH WIND       PRES   REMARKS
TROUTDALE      CLOUDY    43  38  82 E13       29.98S
THE DALLES     MOCLDY    38  37  97 CALM      30.03S
$$

ORZ029>031-041-044-049-050-061>064-502-503-505>511-181100-
EASTERN OREGON


CITY           SKY/WX    TMP DP  RH WIND       PRES   REMARKS
REDMOND        CLOUDY    33  31  92 E8        29.95S WCI  26
BEND           PTCLDY    36  32  87 SW10      29.96S WCI  28
PRINEVILLE     CLOUDY    32  32 100 E3        29.97S
KLAMATH FALLS  LGT RAIN  35  32  88 CALM      29.99S
LAKEVIEW       CLOUDY    34  30  86 SE9       30.02S WCI  26
HERMISTON      CLOUDY    35  33  92 S3        30.02R FOG
PENDLETON      FOG       34  33  96 CALM      29.99R VSB 1
JOHN DAY       CLOUDY    36  35  96 E9        29.98S WCI  29
MEACHAM        CLOUDY    34  32  92 CALM      29.96R
LA GRANDE      CLOUDY    41  28  60 S12       29.98S
BAKER CITY     CLOUDY    32  30  92 W3        30.00R
BURNS          CLOUDY    32  30  92 CALM      30.00S
ROME             N/A     28  25  88 CALM      30.01S
ONTARIO        LGT RAIN  36  33  89 S3        30.07R
$$



USA.gov is the U.S. government's official web portal to all federal, state and local government web resources and services.